NOAA 16 DEB, 41218

Orbit data source: Space-Track

NOAA 16 DEB, 41218 is space debris in SSO originally from a launch on Thu, 21 Sep 2000 UTC launched from the Air Force Western Test Range (AFWTR). Debris objects in space refer to the collection of defunct objects orbiting the Earth. Examples of debris include non-operational satellites, rocket bodies, and fragments generated from explosions, collisions, or faulty payload assembly.

Loading next visibility...
Identifier
41218, 2000-055DX
Orbit
SSO
Country
Flag of USUS
Related business
Manufacturer
Unknown
Mission
Spacecraft
Bus & Motor
Unknown
Mass
Unknown
Launch date (UTC)
2000-09-21 (26 years ago)
Launch vehicle
Unknown
Launch site
Air Force Western Test Range (AFWTR)
Object type
Payload
Rocket body
Debris
Shape & HBR
Unknown shape, 0.1 m
Radar Cross Section
Medium (>0.1 m² and <1 m²)

Expand to show TLE details & history
Last TLE update: 4 days ago

TLE from 4 days ago
0 NOAA 16 DEB
1 41218U 00055DX  26169.77657539  .00006126  00000-0  17130-2 0  9998
2 41218  98.7904 286.6744 0034194 272.1411  87.5864 14.46184740545541
Epoch: 2026-06-18T18:38Z
TLE epoch observation values (Epoch: 2026-06-18T18:38:16.113Z)
Latitude
-0.00006°
Longitude
100.09222°
Altitude
740.143 km
Speed
7.485 km/s
True Right ascension
19h 06m 41s
True Declination
0° 00' 00"
Sunlit
Object was in full shadow at epoch
Visualization orbit readout
Latitude
Unknown
Longitude
Unknown
Altitude
Unknown
Speed
Unknown
Apparent Right ascension
Unknown
Apparent Declination
Unknown
Sunlit
N/A
Visualization observer readout
Local Sidereal Time
21:36:23
Azimuth
Unknown
Elevation
Unknown
Doppler factor
Unknown
Orbital elements
Apogee altitude
759.588 km
Perigee altitude
710.941 km
Semi-major axis
7,113.402 km
Eccentricity
0.00342
Inclination
98.7904°
RAAN
286.6744°
Arg. of periapsis
272.1411°
True anomaly
87.97795°
Mean anomaly
87.5864°
Eccentric anomaly
87.78217°
Mean motion
3.61766 °/min
Orbital period
99.51 mins
BSTAR
0.001713
Loading maneuver chart data...
Computing Atmospheric mass density...
Loading historical data...
Loading historical data...
Loading historical data...
Loading historical data...
Loading historical data...
Loading historical data...
Loading historical data...

Documentation

Showing up to 5 results
|